Howell, MI

8:00 PM EDT on May 27, 2017 (GMT -0400)
Livingston County

Weather History for KOZW - January, 2014

Change the Weather History Date:

Tuesday, January 14, 2014

  Actual Average Record
Temperature  
Mean Temperature 30 °F -  
Max Temperature 36 °F 28 °F 46 °F (2002)
Min Temperature 24 °F 15 °F -7 °F (2009)
Degree Days  
Heating Degree Days 35    
Moisture  
Dew Point 25 °F    
Average Humidity 82    
Maximum Humidity 99    
Minimum Humidity 56    
Precipitation  
Precipitation 0.00 in - - ()
Sea Level Pressure  
Sea Level Pressure 29.69 in    
Wind  
Wind Speed 10 mph (SSW)    
Max Wind Speed 21 mph    
Max Gust Speed 31 mph    
Visibility 8 miles    
Events Snow    
Averages and records for this station are not official NWS values.
T = Trace of Precipitation, MM = Missing Value Source: NWS Daily Summary

Daily Weather History Graph

Daily Weather History Graph

Search for Another Location

Airport or City:

Trip Planner

Search our weather history database for the weather conditions in past years. The results will help you decide how hot, cold, wet, or windy it might be!

Date:

Astronomy

Jan. 14, 2014 Rise Set
Actual Time 8:03 AM EST 5:26 PM EST
Civil Twilight 7:32 AM EST 5:57 PM EST
Nautical Twilight 6:57 AM EST 6:32 PM EST
Astronomical Twilight 6:23 AM EST 7:06 PM EST
Moon 4:31 PM EST (1/14) 6:37 AM EST (1/14)
Length of Visible Light 10h 25m
Length of Day
9h 22m
Waxing Gibbous, 98% of the Moon is Illuminated
Jan 14
Waxing Gibbous
Jan 15
Full
Jan 24
Last Quarter
Jan 30
New
Feb 6
First Quarter

Hourly Weather History & Observations

Time (EST) Temp. Windchill Dew Point Humidity Pressure Visibility Wind Dir Wind Speed Gust Speed Precip Events Conditions
12:15 AM 34.0 °F 25.0 °F 31.5 °F 90% 29.65 in 10.0 mi West 12.7 mph - N/A   Overcast
12:35 AM 34.2 °F 23.6 °F 30.4 °F 86% 29.66 in 10.0 mi West 17.3 mph 21.9 mph N/A   Overcast
12:55 AM 33.8 °F 23.5 °F 28.9 °F 82% 29.66 in 10.0 mi West 16.1 mph - N/A   Overcast
1:15 AM 33.3 °F 23.2 °F 28.0 °F 81% 29.67 in 10.0 mi West 15.0 mph - N/A   Mostly Cloudy
1:35 AM 32.0 °F 22.5 °F 26.8 °F 81% 29.67 in 10.0 mi West 12.7 mph - N/A   Scattered Clouds
1:55 AM 31.6 °F 22.6 °F 26.6 °F 82% 29.68 in 10.0 mi West 11.5 mph - N/A   Scattered Clouds
2:15 AM 31.5 °F 24.9 °F 26.8 °F 83% 29.70 in 10.0 mi West 6.9 mph - N/A   Overcast
2:35 AM 30.7 °F 24.1 °F 26.4 °F 84% 29.70 in 10.0 mi West 6.9 mph - N/A   Mostly Cloudy
2:55 AM 29.3 °F 23.2 °F 25.7 °F 86% 29.71 in 10.0 mi West 5.8 mph - N/A   Scattered Clouds
3:15 AM 28.2 °F 23.1 °F 25.0 °F 88% 29.71 in 10.0 mi WSW 4.6 mph - N/A   Clear
3:35 AM 27.5 °F 22.2 °F 24.8 °F 90% 29.71 in 10.0 mi West 4.6 mph - N/A   Clear
3:56 AM 27.1 °F 23.2 °F 24.6 °F 90% 29.71 in 10.0 mi WSW 3.5 mph - N/A   Clear
4:15 AM 26.1 °F 21.9 °F 24.3 °F 93% 29.71 in 7.0 mi WSW 3.5 mph - N/A   Clear
4:35 AM 26.2 °F 22.1 °F 24.6 °F 94% 29.71 in 7.0 mi WSW 3.5 mph - N/A   Scattered Clouds
4:55 AM 26.6 °F 22.6 °F 25.2 °F 94% 29.71 in 7.0 mi WSW 3.5 mph - N/A   Clear
5:15 AM 26.1 °F - 24.8 °F 95% 29.71 in 7.0 mi Calm Calm - N/A   Clear
5:35 AM 25.7 °F 21.5 °F 24.6 °F 96% 29.72 in 5.0 mi SW 3.5 mph - N/A   Clear
5:55 AM 24.8 °F 20.5 °F 24.1 °F 97% 29.72 in 5.0 mi SW 3.5 mph - N/A   Clear
6:15 AM 25.3 °F - 24.8 °F 98% 29.72 in 5.0 mi Calm Calm - N/A   Clear
6:35 AM 25.5 °F 21.3 °F 25.0 °F 98% 29.72 in 4.0 mi SSW 3.5 mph - N/A   Clear
6:55 AM 24.8 °F 20.5 °F 24.3 °F 98% 29.72 in 4.0 mi South 3.5 mph - N/A   Clear
7:15 AM 25.3 °F 19.7 °F 24.8 °F 98% 29.73 in 4.0 mi SSW 4.6 mph - N/A   Clear
7:35 AM 24.8 °F 20.5 °F 24.4 °F 99% 29.73 in 4.0 mi South 3.5 mph - N/A   Clear
7:55 AM 25.0 °F 19.3 °F 24.8 °F 99% 29.73 in 4.0 mi SSW 4.6 mph - N/A   Clear
8:15 AM 24.4 °F 20.1 °F 23.9 °F 98% 29.73 in 2.5 mi SSW 3.5 mph - N/A   Clear
8:35 AM 24.6 °F 20.3 °F 24.3 °F 99% 29.74 in 2.5 mi SSW 3.5 mph - N/A   Clear
8:56 AM 25.3 °F 21.1 °F 25.0 °F 99% 29.75 in 3.0 mi SSW 3.5 mph - N/A   Clear
9:15 AM 26.2 °F 20.7 °F 25.7 °F 98% 29.76 in 4.0 mi SSW 4.6 mph - N/A   Clear
9:35 AM 27.0 °F 21.6 °F 26.1 °F 96% 29.77 in 4.0 mi SSW 4.6 mph - N/A   Clear
9:55 AM 28.2 °F 22.0 °F 27.0 °F 95% 29.77 in 5.0 mi South 5.8 mph - N/A   Clear
10:15 AM 29.3 °F 20.8 °F 27.1 °F 92% 29.76 in 5.0 mi South 9.2 mph - N/A   Clear
10:36 AM 30.2 °F 24.3 °F 27.5 °F 90% 29.75 in 4.0 mi South 5.8 mph - N/A Snow Light Snow
10:55 AM 31.5 °F 23.5 °F 27.5 °F 85% 29.75 in 7.0 mi South 9.2 mph - N/A   Clear
11:15 AM 32.0 °F 24.8 °F 27.1 °F 82% 29.75 in 7.0 mi South 8.1 mph - N/A   Clear
11:35 AM 32.9 °F 25.3 °F 25.9 °F 75% 29.74 in 10.0 mi South 9.2 mph - N/A   Clear
11:55 AM 34.2 °F 26.8 °F 24.1 °F 67% 29.73 in 10.0 mi South 9.2 mph - N/A   Clear
12:15 PM 34.7 °F 27.5 °F 24.4 °F 66% 29.71 in 10.0 mi South 9.2 mph - N/A   Clear
12:35 PM 35.1 °F 27.9 °F 24.6 °F 66% 29.71 in 10.0 mi SSE 9.2 mph - N/A   Clear
12:55 PM 35.6 °F 28.0 °F 23.7 °F 62% 29.70 in 10.0 mi SSE 10.4 mph - N/A   Clear
1:15 PM 35.6 °F 29.2 °F 23.9 °F 62% 29.69 in 10.0 mi SSE 8.1 mph - N/A   Scattered Clouds
1:35 PM 35.8 °F 28.3 °F 22.1 °F 58% 29.68 in 10.0 mi SSE 10.4 mph - N/A   Overcast
1:55 PM 36.1 °F 29.9 °F 22.1 °F 57% 29.68 in 10.0 mi SSE 8.1 mph - N/A   Overcast
2:15 PM 36.1 °F 28.7 °F 21.7 °F 56% 29.67 in 10.0 mi SSE 10.4 mph - N/A   Overcast
2:35 PM 35.8 °F 26.9 °F 21.7 °F 57% 29.67 in 10.0 mi SSE 13.8 mph - N/A   Overcast
2:55 PM 36.0 °F 28.0 °F 22.6 °F 58% 29.66 in 10.0 mi South 11.5 mph 17.3 mph N/A   Overcast
3:15 PM 35.8 °F 28.3 °F 23.0 °F 60% 29.67 in 10.0 mi South 10.4 mph - N/A   Overcast
3:35 PM 35.6 °F 27.1 °F 25.3 °F 66% 29.66 in 10.0 mi SSE 12.7 mph 17.3 mph N/A   Overcast
3:55 PM 34.7 °F 26.4 °F 26.1 °F 71% 29.66 in 7.0 mi SSE 11.5 mph - N/A   Overcast
4:15 PM 34.3 °F 24.6 °F 26.4 °F 73% 29.66 in 7.0 mi SE 15.0 mph 18.4 mph N/A   Overcast
4:35 PM 34.0 °F 25.0 °F 26.2 °F 73% 29.64 in 7.0 mi SSE 12.7 mph - N/A   Overcast
4:55 PM 33.8 °F 25.8 °F 26.4 °F 74% 29.65 in 7.0 mi South 10.4 mph - N/A   Overcast
5:15 PM 34.2 °F 25.2 °F 25.9 °F 72% 29.65 in 7.0 mi South 12.7 mph 16.1 mph N/A   Overcast
5:35 PM 34.2 °F 23.6 °F 26.6 °F 74% 29.66 in 7.0 mi South 17.3 mph 21.9 mph N/A   Overcast
5:55 PM 33.3 °F 24.1 °F 28.0 °F 81% 29.66 in 3.0 mi South 12.7 mph 18.4 mph N/A Snow Light Snow
6:15 PM 32.4 °F 25.3 °F 29.7 °F 90% 29.66 in 3.0 mi South 8.1 mph - N/A Snow Light Snow
6:36 PM 32.2 °F 25.0 °F 30.6 °F 94% 29.66 in 3.0 mi South 8.1 mph - N/A Snow Light Snow
6:55 PM 32.4 °F 24.0 °F 30.9 °F 94% 29.65 in 5.0 mi South 10.4 mph - N/A   Overcast
7:15 PM 32.5 °F 24.8 °F 31.1 °F 94% 29.65 in 5.0 mi South 9.2 mph - N/A   Overcast
7:35 PM 32.9 °F 24.1 °F 31.3 °F 94% 29.66 in 5.0 mi SSW 11.5 mph - N/A   Overcast
7:55 PM 32.9 °F 25.3 °F 31.1 °F 93% 29.66 in 4.0 mi SSW 9.2 mph 16.1 mph N/A   Overcast
8:15 PM 32.9 °F 24.1 °F 31.1 °F 93% 29.66 in 7.0 mi SW 11.5 mph 17.3 mph N/A   Overcast
8:35 PM 33.1 °F 22.6 °F 30.4 °F 90% 29.66 in 10.0 mi SW 16.1 mph 20.7 mph N/A   Overcast
8:56 PM 32.0 °F 20.5 °F 26.4 °F 80% 29.68 in 10.0 mi WSW 18.4 mph 29.9 mph N/A   Overcast
9:15 PM 30.0 °F 17.5 °F 22.5 °F 73% 29.69 in 10.0 mi WSW 19.6 mph 31.1 mph N/A   Overcast
9:35 PM 29.3 °F 19.1 °F 21.2 °F 72% 29.69 in 10.0 mi SW 12.7 mph 23.0 mph N/A   Overcast
9:55 PM 29.7 °F 19.6 °F 21.0 °F 70% 29.69 in 10.0 mi SW 12.7 mph 23.0 mph N/A   Overcast
10:15 PM 29.8 °F 18.0 °F 20.5 °F 68% 29.68 in 10.0 mi SW 17.3 mph 24.2 mph N/A   Overcast
10:35 PM 29.7 °F 20.7 °F 21.0 °F 70% 29.68 in 10.0 mi SW 10.4 mph 16.1 mph N/A   Overcast
10:55 PM 29.5 °F 18.8 °F 21.4 °F 72% 29.68 in 10.0 mi WSW 13.8 mph 20.7 mph N/A   Overcast
11:15 PM 28.9 °F 18.2 °F 19.2 °F 67% 29.68 in 10.0 mi WSW 13.8 mph 23.0 mph N/A   Overcast
11:35 PM 28.4 °F 15.1 °F 18.3 °F 66% 29.68 in 10.0 mi WSW 20.7 mph 26.5 mph N/A   Overcast
11:55 PM 28.2 °F 15.2 °F 18.5 °F 67% 29.69 in 10.0 mi SW 19.6 mph 25.3 mph N/A   Overcast